Find Starlink 3889

NORAD ID: 52331 Int'l Des: 2022-045 Owner: SPXS Country: US Constellation: starlink operational
LEOCIRCULAR

現在のビュー

3D地球を読み込み中...

About Starlink 3889

Starlink 3889 (NORAD 52331) is a starlink constellation satellite (v1.5) launched Apr 29, 2022 by SPXS of US. It operates in LEO, CIRCULAR orbit with a mass of 297.00 kg.

次回通過

Passes for default location (London). Set your location on the main map for personalized predictions.

高度履歴

Loading altitude history...

軌道要素

1 52331U 22045A 26208.67903904 .00000398 00000-0 43117-4 0 9993
2 52331 53.1597 300.3509 0001093 86.6453 273.4664 15.08830854236770
Epoch: Jul 27, 2026 • Age: 26 hours

現在のステータス

高度 539.7 km
遠地点 / 近地点 N/A
速度 7.59 km/s
衛星直下点 11.75°N, 91.11°E
打ち上げ日 Apr 29, 2022
運用期間 4.2 years
タイプ internet

技術仕様

分類 Payload
質量 297.00 kg
乾燥質量 275.00 kg
総質量 297.00 kg
長さ 0.20 m
直径 2.80 m
スパン 9.00 m
形状 Box + pan
製造者 SPXS
バスタイプ Starlink
フェーズステータス In Orbit
所有者/国 SPXS/US

Most Searched